[[{"header":{"parameterUnit":"m.s-1","parameterCategory":1,"la1":30.2991,"la2":30.254,"lo1":-89.0895,"lo2":-89.0444,"dy":0.0017,"dx":0.0017,"nx":28,"ny":28,"refTime":"2023-10-30T21:00:00:Z","depth":0,"parameterNumber":2,"parameterNumberName":"U-component_of_WINDS"},"data":[0,0,0,0,0,0,0,0,0,0,0,0,0,0,0,0,0,0,0,0,0,0,0,0,0,0,0,0,0,0,0,0,0,0,0,0,0,0,0,0,0,0,0,0,0,0,0,0,0,0,0,0,0,0,0,0,0,0,0.818,0.8179,0,0.8116,0.8116,0.8115,0.8087,0.8087,0.8088,0.8088,0.8022,0.802,0.8018,0,0,0,0,0,0,0,0,0,0,0,0,0,0.8277,0.8275,0.818,0.8179,0.8178,0.8116,0.8115,0.8115,0.8087,0.8087,0.8088,0.8088,0.8022,0.802,0.8018,0,0,0,0,0,0,0,0,0,0,0,0,0,0.8226,0.8275,0.818,0.8157,0.8154,0.8117,0.8115,0.8114,0.8087,0.8087,0.8088,0.8088,0.8023,0.802,0.8018,0.7997,0,0,0.8009,0.8008,0,0,0,0,0,0,0,0,0.8229,0.8223,0.8161,0.8159,0.8156,0.811,0.8126,0.8075,0.8087,0.8113,0.8088,0.8088,0.8051,0.8046,0.8034,0.7994,0.7991,0.8009,0.8007,0.8006,0.8005,0,0,0,0,0,0,0,0.8233,0.8225,0.8155,0.816,0.8157,0.815,0.8143,0.8116,0.8082,0.8111,0.8108,0.8101,0.8049,0.8036,0.8032,0.799,0.8009,0.8006,0.8005,0.8004,0.7932,0.7932,0,0,0,0,0,0,0.824,0.8228,0.8157,0.8153,0.8194,0.8148,0.814,0.8124,0.8082,0.8076,0.8101,0.81,0.8041,0.8035,0.8029,0.8003,0.8006,0.8003,0.8002,0.7932,0.7932,0.7932,0,0,0,0,0,0,0.8242,0.8234,0.8159,0.819,0.818,0.8146,0.8129,0.8123,0.811,0.8075,0.8069,0.8094,0.8041,0.8033,0.8006,0.8,0.8002,0.8,0.7933,0.7932,0.7932,0.795,0,0,0,0,0,0,0.8245,0.8235,0.8227,0.819,0.8178,0.8137,0.8128,0.8122,0.8105,0.8103,0.8067,0.8061,0.804,0.801,0.8003,0.7997,0.7997,0.7933,0.7932,0.7932,0.795,0.7951,0.7951,0,0,0,0,0,0.8249,0.8234,0.8226,0.8218,0.8168,0.8136,0.813,0.8107,0.8105,0.8097,0.8074,0.8062,0.8002,0.8007,0.7999,0.7992,0.7933,0.7933,0.7932,0.795,0.795,0.7951,0,0,0,0,0,0,0.827,0.8229,0.822,0.8193,0.8168,0.8132,0.812,0.8108,0.8084,0.8083,0.8055,0.8047,0.8022,0.8004,0.8011,0.7971,0.7967,0.7965,0.7983,0.7983,0.7984,0.7988,0.7995,0,0,0,0,0,0.8272,0.825,0.8215,0.8195,0.8183,0.8154,0.8139,0.8124,0.8098,0.8087,0.8063,0.8037,0.8013,0.7997,0.7973,0.7948,0.7939,0.7939,0.7939,0.794,0.7938,0.7924,0.7924,0.793,0.793,0.793,0,0,0.8275,0.825,0.8237,0.8198,0.8178,0.8156,0.8145,0.8122,0.8106,0.8083,0.8056,0.8038,0.8007,0.7981,0.7968,0.7965,0.7935,0.7939,0.794,0.7938,0.7924,0.7923,0.7922,0.793,0.793,0.793,0,0,0.8269,0.8248,0.8229,0.8209,0.8178,0.8159,0.8154,0.812,0.8107,0.8079,0.8062,0.8042,0.8001,0.798,0.7964,0.7952,0.794,0.7945,0.7948,0.7935,0.7934,0.7933,0.7929,0.7928,0.7944,0.7944,0.7944,0,0.8277,0.8243,0.822,0.8199,0.8182,0.8162,0.8142,0.8124,0.8086,0.8075,0.8073,0.8021,0.7999,0.7968,0.7966,0.7954,0.7948,0.7949,0.7936,0.7935,0.7934,0.793,0.7929,0.7945,0.7945,0.7944,0.7944,0,0.8254,0.8231,0.822,0.8185,0.8167,0.8146,0.8121,0.8105,0.8092,0.8074,0.8046,0.802,0.799,0.7982,0.7968,0.7949,0.7948,0.7941,0.7937,0.7935,0.7931,0.7929,0.7946,0.7946,0.7945,0.7945,0,0,0.8259,0.8213,0.8209,0.8193,0.8158,0.814,0.8119,0.809,0.8078,0.8053,0.8035,0.8001,0.7995,0.7977,0.7961,0.795,0.7943,0.7944,0.7943,0.7945,0.792,0.7925,0.7924,0.7935,0.7935,0.7934,0.7923,0,0.8248,0.821,0.8189,0.8159,0.8138,0.8119,0.8101,0.8078,0.806,0.804,0.8021,0.7997,0.7991,0.798,0.7968,0.7946,0.7937,0.7947,0.7917,0.7917,0.7925,0.7921,0.7926,0.7917,0.7921,0.7921,0.792,0,0.823,0.8207,0.8175,0.8143,0.8134,0.8118,0.809,0.8071,0.8045,0.8033,0.8014,0.7998,0.7976,0.7974,0.7943,0.795,0.7937,0.7925,0.7924,0.792,0.7918,0.7917,0.7913,0.7912,0.7917,0.7918,0.7918,0,0.8237,0.8197,0.8173,0.816,0.8123,0.8112,0.8096,0.807,0.8054,0.803,0.802,0.7994,0.798,0.796,0.7938,0.7939,0.791,0.7906,0.7899,0.79,0.7893,0.7893,0.7887,0.7885,0.7886,0.7886,0.7886,0,0.8227,0.8208,0.8176,0.8161,0.814,0.8117,0.8096,0.8079,0.8056,0.8037,0.802,0.8003,0.7975,0.7955,0.7938,0.7915,0.7909,0.7899,0.7894,0.79,0.7901,0.7891,0.7891,0.7885,0.7885,0.7885,0.7885,0,0.823,0.8208,0.818,0.8148,0.8139,0.8125,0.8097,0.8082,0.8064,0.8041,0.8034,0.8006,0.7982,0.7959,0.7926,0.7915,0.7891,0.7886,0.79,0.7898,0.7892,0.7893,0.7878,0.7875,0.7876,0.7876,0.7877,0,0.8225,0.821,0.8176,0.8163,0.8147,0.8126,0.811,0.8087,0.8072,0.8041,0.803,0.8005,0.7983,0.7945,0.7922,0.7897,0.789,0.7887,0.7886,0.7893,0.789,0.7891,0.7889,0.7887,0.7887,0.7887,0.7887,0,0.8218,0.8208,0.8186,0.8161,0.8143,0.8121,0.81,0.809,0.8063,0.8046,0.8021,0.8005,0.7972,0.7947,0.7919,0.7903,0.7891,0.7888,0.7885,0.789,0.7899,0.7894,0.7901,0.7888,0.7888,0.7888,0.7888,0.7888,0.8216,0.8203,0.8177,0.8154,0.8135,0.8115,0.81,0.8081,0.806,0.8031,0.8019,0.7994,0.7969,0.7931,0.7915,0.7895,0.7892,0.7888,0.7887,0.7886,0.7887,0.7903,0.789,0.789,0.789,0.789,0.789,0,0.8209,0.8191,0.817,0.8141,0.8122,0.8113,0.8089,0.8074,0.8052,0.803,0.801,0.7981,0.7957,0.7933,0.7908,0.7896,0.789,0.7891,0.7891,0.7887,0.7891,0.7896,0.7896,0.7896,0.7896,0.7896,0.7896,0.7896,0.8202,0.8179,0.8166,0.8133,0.8116,0.8091,0.8078,0.806,0.8043,0.8012,0.7992,0.7977,0.7954,0.7927,0.7905,0.7898,0.7889,0.7891,0.7883,0.7887,0.7887,0.7887,0.7891,0.789,0.789,0.7881,0.7881,0.788]},{"header":{"parameterUnit":"m.s-1","parameterCategory":1,"la1":30.2991,"la2":30.254,"lo1":-89.0895,"lo2":-89.0444,"dy":0.0017,"dx":0.0017,"nx":28,"ny":28,"refTime":"2023-10-30T21:00:00:Z","depth":0,"parameterNumber":3,"parameterNumberName":"V-component_of_WINDS"},"data":[0,0,0,0,0,0,0,0,0,0,0,0,0,0,0,0,0,0,0,0,0,0,0,0,0,0,0,0,0,0,0,0,0,0,0,0,0,0,0,0,0,0,0,0,0,0,0,0,0,0,0,0,0,0,0,0,0,0,-8.7891,-8.7893,0,-8.8068,-8.807,-8.8072,-8.802,-8.8017,-8.8013,-8.801,-8.8184,-8.8192,-8.82,0,0,0,0,0,0,0,0,0,0,0,0,0,-8.7501,-8.7508,-8.789,-8.7893,-8.7895,-8.8068,-8.807,-8.8073,-8.8021,-8.8017,-8.8012,-8.8008,-8.8182,-8.8191,-8.8201,0,0,0,0,0,0,0,0,0,0,0,0,0,-8.7673,-8.751,-8.789,-8.789,-8.7892,-8.8067,-8.807,-8.8073,-8.8022,-8.8017,-8.8011,-8.8006,-8.8179,-8.819,-8.8202,-8.8386,0,0,-8.8239,-8.8244,0,0,0,0,0,0,0,0,-8.7663,-8.7687,-8.7888,-8.789,-8.7893,-8.8017,-8.7997,-8.8178,-8.8023,-8.7972,-8.801,-8.8003,-8.8132,-8.8148,-8.8193,-8.8394,-8.8402,-8.824,-8.8247,-8.8253,-8.8256,0,0,0,0,0,0,0,-8.7652,-8.7679,-8.796,-8.7891,-8.7894,-8.7879,-8.7898,-8.8031,-8.8081,-8.7976,-8.7973,-8.7995,-8.8133,-8.8182,-8.8197,-8.8404,-8.824,-8.825,-8.8258,-8.8263,-8.8767,-8.8773,0,0,0,0,0,0,-8.7639,-8.767,-8.7955,-8.7966,-8.7763,-8.7891,-8.7912,-8.7982,-8.8079,-8.8089,-8.8,-8.7992,-8.8164,-8.8183,-8.8203,-8.8426,-8.8252,-8.8264,-8.8271,-8.8761,-8.8768,-8.8775,0,0,0,0,0,0,-8.7631,-8.7665,-8.7948,-8.7817,-8.7852,-8.7904,-8.7983,-8.7989,-8.8038,-8.8097,-8.8105,-8.8041,-8.816,-8.8186,-8.8342,-8.8431,-8.8269,-8.828,-8.8753,-8.8763,-8.8771,-8.8873,0,0,0,0,0,0,-8.762,-8.7662,-8.7734,-8.7819,-8.7859,-8.8086,-8.7989,-8.7996,-8.806,-8.8051,-8.8138,-8.8147,-8.8158,-8.8324,-8.8354,-8.8445,-8.829,-8.8746,-8.8758,-8.8769,-8.8862,-8.8885,-8.8904,0,0,0,0,0,-8.7606,-8.7753,-8.7738,-8.7772,-8.795,-8.8091,-8.8114,-8.8126,-8.8067,-8.8139,-8.8177,-8.8144,-8.8417,-8.8341,-8.8373,-8.847,-8.874,-8.8754,-8.8768,-8.8852,-8.888,-8.8903,0,0,0,0,0,0,-8.7673,-8.7764,-8.7748,-8.7928,-8.8003,-8.8082,-8.8173,-8.8154,-8.8245,-8.8234,-8.8242,-8.8262,-8.8422,-8.8461,-8.8375,-8.8653,-8.8569,-8.859,-8.8622,-8.8649,-8.867,-8.8657,-8.83,0,0,0,0,0,-8.771,-8.7819,-8.7891,-8.8043,-8.8081,-8.8121,-8.8183,-8.8186,-8.8263,-8.8293,-8.8343,-8.8417,-8.8519,-8.8586,-8.8683,-8.8867,-8.8885,-8.8949,-8.897,-8.8987,-8.9006,-8.9107,-8.9137,-8.882,-8.882,-8.882,0,0,-8.7785,-8.7848,-8.7916,-8.8058,-8.8116,-8.8228,-8.8148,-8.8268,-8.835,-8.831,-8.8462,-8.8501,-8.8584,-8.8756,-8.8833,-8.8793,-8.9097,-8.9005,-8.9018,-8.9027,-8.9124,-8.9154,-8.9181,-8.883,-8.8828,-8.8826,0,0,-8.7979,-8.8038,-8.8172,-8.8233,-8.8323,-8.8349,-8.8381,-8.8465,-8.849,-8.8643,-8.8616,-8.8713,-8.8889,-8.895,-8.9004,-8.9224,-8.9197,-8.9255,-8.9365,-8.9464,-8.9488,-8.9511,-8.959,-8.9619,-8.9273,-8.9273,-8.9273,0,-8.806,-8.8229,-8.8242,-8.8367,-8.843,-8.8402,-8.8537,-8.8595,-8.8711,-8.8755,-8.8708,-8.8931,-8.8984,-8.917,-8.9225,-8.9269,-8.9305,-8.9245,-8.9484,-8.9507,-8.9527,-8.9603,-8.9633,-8.9279,-8.9279,-8.9278,-8.9277,0,-8.8325,-8.8443,-8.854,-8.8657,-8.8731,-8.886,-8.8891,-8.8964,-8.8961,-8.8992,-8.9148,-8.9212,-8.9323,-8.9367,-8.9363,-8.9553,-8.9525,-8.9482,-8.9397,-8.9564,-8.9636,-8.9665,-8.9289,-8.9287,-8.9285,-8.9283,0,0,-8.8566,-8.8691,-8.8726,-8.878,-8.8879,-8.8969,-8.9097,-8.9208,-8.9271,-8.9352,-8.9459,-8.961,-8.9572,-8.9633,-8.9636,-8.9723,-8.9895,-8.9669,-8.9671,-8.971,-9.0109,-9.0142,-9.0175,-8.9878,-8.9883,-8.9888,-9.0102,0,-8.8769,-8.8997,-8.9013,-8.9218,-8.9327,-8.9303,-8.9414,-8.9486,-8.9518,-8.9614,-8.9648,-8.9756,-8.9695,-8.9733,-8.9817,-8.9856,-8.9975,-8.9841,-8.9976,-8.9981,-8.9958,-9.0213,-9.0248,-9.0447,-9.013,-9.0135,-9.0138,0,-8.9037,-8.9131,-8.9348,-8.9434,-8.948,-8.958,-8.9685,-8.9777,-8.9857,-8.9875,-8.9945,-8.9937,-9.0066,-8.9978,-9.0156,-9.0065,-9.0121,-9.0149,-9.0157,-9.017,-9.007,-9.0234,-9.0511,-9.0541,-9.0182,-9.0179,-9.0176,0,-8.9193,-8.9373,-8.9527,-8.9573,-8.9676,-8.9748,-8.9793,-8.9869,-8.9936,-9.0026,-9.007,-9.0173,-9.0229,-9.0308,-9.0328,-9.0262,-9.0507,-9.0419,-9.0524,-9.0524,-9.0577,-9.0574,-9.0868,-9.0612,-9.0612,-9.0611,-9.0611,0,-8.9419,-8.9553,-8.9598,-8.9693,-8.9842,-8.9859,-9.0005,-9.0046,-9.0114,-9.0215,-9.0199,-9.0294,-9.0314,-9.0412,-9.0428,-9.0574,-9.0599,-9.0616,-9.0619,-9.0618,-9.0616,-9.0656,-9.0642,-9.0619,-9.0617,-9.0616,-9.0614,0,-8.9618,-8.9654,-8.982,-8.9906,-8.993,-9.0037,-9.0109,-9.0199,-9.023,-9.0358,-9.0389,-9.0437,-9.0552,-9.058,-9.0715,-9.0726,-9.09,-9.0888,-9.0874,-9.0873,-9.0977,-9.0967,-9.1307,-9.1353,-9.1067,-9.1069,-9.1071,0,-8.976,-8.9863,-8.9961,-9.003,-9.008,-9.0189,-9.0258,-9.0278,-9.0351,-9.0452,-9.053,-9.0644,-9.0737,-9.0921,-9.0967,-9.1071,-9.1063,-9.1175,-9.1078,-9.1075,-9.1066,-9.106,-9.1071,-9.1193,-9.1196,-9.1199,-9.1201,0,-9.001,-9.0023,-9.0125,-9.0234,-9.0318,-9.0403,-9.0485,-9.0541,-9.0572,-9.0654,-9.0774,-9.0846,-9.0987,-9.11,-9.1206,-9.125,-9.1232,-9.1231,-9.1261,-9.1262,-9.125,-9.1259,-9.0925,-9.1223,-9.1221,-9.1219,-9.1218,-9.1217,-9.0186,-9.0277,-9.0361,-9.0475,-9.054,-9.0617,-9.0708,-9.0751,-9.0852,-9.0971,-9.0976,-9.1106,-9.1185,-9.1325,-9.1377,-9.1477,-9.1443,-9.1486,-9.1497,-9.1508,-9.1518,-9.1234,-9.1496,-9.1496,-9.1495,-9.1495,-9.1494,0,-9.0435,-9.0489,-9.0594,-9.0711,-9.0801,-9.0778,-9.0868,-9.0944,-9.106,-9.1137,-9.1229,-9.1367,-9.1477,-9.1533,-9.1642,-9.1712,-9.1706,-9.174,-9.1735,-9.1746,-9.1541,-9.1505,-9.1743,-9.1743,-9.1743,-9.1743,-9.1743,-9.1743,-9.0576,-9.073,-9.0754,-9.094,-9.0991,-9.1122,-9.1175,-9.1246,-9.1308,-9.1464,-9.1557,-9.1593,-9.1662,-9.1776,-9.1876,-9.1889,-9.193,-9.1969,-9.1978,-9.1786,-9.176,-9.1736,-9.1702,-9.1978,-9.1978,-9.2175,-9.2177,-9.2178]}]]